Time,TemperatureF,DewpointF,PressureIn,WindDirection,WindDirectionDegrees,WindSpeedMPH,WindSpeedGustMPH,Humidity,HourlyPrecipIn,Conditions,Clouds,dailyrainin,SoftwareType,DateUTC
2013-02-22 00:00:00,35.4,29.6,30.14,East,90,0.0,0.0,79,0.00,,,0.00,LWC V2.11 B50,2013-02-22 08:00:00,
2013-02-22 00:05:00,34.9,30.0,30.16,ENE,68,0.0,1.0,82,0.00,,,0.00,WeatherCatV1.15B25,2013-02-22 08:05:00,
2013-02-22 00:10:00,36.0,29.8,30.15,East,90,0.0,3.0,78,0.00,,,0.00,LWC V2.11 B50,2013-02-22 08:10:00,
2013-02-22 00:15:00,34.9,30.0,30.16,ENE,68,0.0,1.0,82,0.00,,,0.00,WeatherCatV1.15B25,2013-02-22 08:15:00,
2013-02-22 00:20:00,36.0,29.8,30.15,East,90,0.0,3.0,78,0.00,,,0.00,LWC V2.11 B50,2013-02-22 08:20:00,
2013-02-22 00:25:00,34.9,30.0,30.16,ENE,68,0.0,1.0,82,0.00,,,0.00,WeatherCatV1.15B25,2013-02-22 08:25:00,
2013-02-22 00:30:00,36.0,29.8,30.15,East,90,0.0,3.0,78,0.00,,,0.00,LWC V2.11 B50,2013-02-22 08:30:00,
2013-02-22 00:35:00,34.9,30.0,30.16,ENE,68,0.0,1.0,82,0.00,,,0.00,WeatherCatV1.15B25,2013-02-22 08:35:00,
2013-02-22 00:40:00,36.0,29.8,30.15,East,90,0.0,3.0,78,0.00,,,0.00,LWC V2.11 B50,2013-02-22 08:40:00,
2013-02-22 00:45:00,34.9,30.0,30.16,ENE,68,0.0,1.0,82,0.00,,,0.00,WeatherCatV1.15B25,2013-02-22 08:45:00,
2013-02-22 00:50:00,36.0,29.8,30.15,East,90,0.0,3.0,78,0.00,,,0.00,LWC V2.11 B50,2013-02-22 08:50:00,
2013-02-22 00:55:00,34.9,30.0,30.16,ENE,68,0.0,1.0,82,0.00,,,0.00,WeatherCatV1.15B25,2013-02-22 08:55:00,
2013-02-22 01:00:00,34.9,30.0,30.16,ENE,68,0.0,1.0,82,0.00,,,0.00,LWC V2.11 B50,2013-02-22 09:00:00,
2013-02-22 01:05:00,34.8,29.6,30.16,ENE,68,0.0,1.0,81,0.00,,,0.00,WeatherCatV1.15B25,2013-02-22 09:05:00,
2013-02-22 01:10:00,34.9,30.0,30.16,ENE,68,0.0,1.0,82,0.00,,,0.00,LWC V2.11 B50,2013-02-22 09:10:00,
2013-02-22 01:15:00,34.8,29.6,30.16,ENE,68,0.0,1.0,81,0.00,,,0.00,WeatherCatV1.15B25,2013-02-22 09:15:00,
2013-02-22 01:20:00,34.9,30.0,30.16,ENE,68,0.0,1.0,82,0.00,,,0.00,LWC V2.11 B50,2013-02-22 09:20:00,
2013-02-22 01:25:00,34.8,29.6,30.16,ENE,68,0.0,1.0,81,0.00,,,0.00,WeatherCatV1.15B25,2013-02-22 09:25:00,
2013-02-22 01:30:00,34.9,30.0,30.16,ENE,68,0.0,1.0,82,0.00,,,0.00,LWC V2.11 B50,2013-02-22 09:30:00,
2013-02-22 01:35:00,34.8,29.6,30.16,ENE,68,0.0,1.0,81,0.00,,,0.00,WeatherCatV1.15B25,2013-02-22 09:35:00,
2013-02-22 01:40:00,34.9,30.0,30.16,ENE,68,0.0,1.0,82,0.00,,,0.00,LWC V2.11 B50,2013-02-22 09:40:00,
2013-02-22 01:45:00,34.8,29.6,30.16,ENE,68,0.0,1.0,81,0.00,,,0.00,WeatherCatV1.15B25,2013-02-22 09:45:00,
2013-02-22 01:50:00,34.9,30.0,30.16,ENE,68,0.0,1.0,82,0.00,,,0.00,LWC V2.11 B50,2013-02-22 09:50:00,
2013-02-22 01:55:00,34.8,29.6,30.16,ENE,68,0.0,1.0,81,0.00,,,0.00,WeatherCatV1.15B25,2013-02-22 09:55:00,
2013-02-22 02:00:00,34.9,30.0,30.16,ENE,68,0.0,1.0,82,0.00,,,0.00,LWC V2.11 B50,2013-02-22 10:00:00,
2013-02-22 02:05:00,33.7,29.1,30.16,ENE,68,0.0,1.0,83,0.00,,,0.00,WeatherCatV1.15B25,2013-02-22 10:05:00,
2013-02-22 02:10:00,34.8,29.6,30.16,ENE,68,0.0,1.0,81,0.00,,,0.00,LWC V2.11 B50,2013-02-22 10:10:00,
2013-02-22 02:15:00,33.7,29.1,30.16,ENE,68,0.0,1.0,83,0.00,,,0.00,WeatherCatV1.15B25,2013-02-22 10:15:00,
2013-02-22 02:20:00,34.8,29.6,30.16,ENE,68,0.0,1.0,81,0.00,,,0.00,LWC V2.11 B50,2013-02-22 10:20:00,
2013-02-22 02:25:00,33.7,29.1,30.16,ENE,68,0.0,1.0,83,0.00,,,0.00,WeatherCatV1.15B25,2013-02-22 10:25:00,
2013-02-22 02:30:00,34.8,29.6,30.16,ENE,68,0.0,1.0,81,0.00,,,0.00,LWC V2.11 B50,2013-02-22 10:30:00,
2013-02-22 02:35:00,33.7,29.1,30.16,ENE,68,0.0,1.0,83,0.00,,,0.00,WeatherCatV1.15B25,2013-02-22 10:35:00,
2013-02-22 02:40:00,34.8,29.6,30.16,ENE,68,0.0,1.0,81,0.00,,,0.00,LWC V2.11 B50,2013-02-22 10:40:00,
2013-02-22 02:45:00,33.7,29.1,30.16,ENE,68,0.0,1.0,83,0.00,,,0.00,WeatherCatV1.15B25,2013-02-22 10:45:00,
2013-02-22 02:50:00,34.8,29.6,30.16,ENE,68,0.0,1.0,81,0.00,,,0.00,LWC V2.11 B50,2013-02-22 10:50:00,
2013-02-22 02:55:00,33.7,29.1,30.16,ENE,68,0.0,1.0,83,0.00,,,0.00,WeatherCatV1.15B25,2013-02-22 10:55:00,
2013-02-22 03:00:00,34.8,29.6,30.16,ENE,68,0.0,1.0,81,0.00,,,0.00,LWC V2.11 B50,2013-02-22 11:00:00,
2013-02-22 03:05:00,34.1,28.3,30.16,NE,45,0.0,1.0,79,0.00,,,0.00,WeatherCatV1.15B25,2013-02-22 11:05:00,
2013-02-22 03:10:00,33.7,29.1,30.16,ENE,68,0.0,1.0,83,0.00,,,0.00,LWC V2.11 B50,2013-02-22 11:10:00,
2013-02-22 03:15:00,34.1,28.3,30.16,NE,45,0.0,1.0,79,0.00,,,0.00,WeatherCatV1.15B25,2013-02-22 11:15:00,
2013-02-22 03:20:00,33.7,29.1,30.16,ENE,68,0.0,1.0,83,0.00,,,0.00,LWC V2.11 B50,2013-02-22 11:20:00,
2013-02-22 03:25:00,34.1,28.3,30.16,NE,45,0.0,1.0,79,0.00,,,0.00,WeatherCatV1.15B25,2013-02-22 11:25:00,
2013-02-22 03:30:00,33.7,29.1,30.16,ENE,68,0.0,1.0,83,0.00,,,0.00,LWC V2.11 B50,2013-02-22 11:30:00,
2013-02-22 03:35:00,34.1,28.3,30.16,NE,45,0.0,1.0,79,0.00,,,0.00,WeatherCatV1.15B25,2013-02-22 11:35:00,
2013-02-22 03:40:00,33.7,29.1,30.16,ENE,68,0.0,1.0,83,0.00,,,0.00,LWC V2.11 B50,2013-02-22 11:40:00,
2013-02-22 03:45:00,34.1,28.3,30.16,NE,45,0.0,1.0,79,0.00,,,0.00,WeatherCatV1.15B25,2013-02-22 11:45:00,
2013-02-22 03:50:00,33.7,29.1,30.16,ENE,68,0.0,1.0,83,0.00,,,0.00,LWC V2.11 B50,2013-02-22 11:50:00,
2013-02-22 03:55:00,34.1,28.3,30.16,NE,45,0.0,1.0,79,0.00,,,0.00,WeatherCatV1.15B25,2013-02-22 11:55:00,
2013-02-22 04:00:00,34.1,28.3,30.16,NE,45,0.0,1.0,79,0.00,,,0.00,LWC V2.11 B50,2013-02-22 12:00:00,
2013-02-22 04:05:00,33.6,28.7,30.18,North,0,0.0,1.0,82,0.00,,,0.00,WeatherCatV1.15B25,2013-02-22 12:05:00,
2013-02-22 04:10:00,34.1,28.3,30.16,NE,45,0.0,1.0,79,0.00,,,0.00,LWC V2.11 B50,2013-02-22 12:10:00,
2013-02-22 04:15:00,33.6,28.7,30.18,North,0,0.0,1.0,82,0.00,,,0.00,WeatherCatV1.15B25,2013-02-22 12:15:00,
2013-02-22 04:20:00,34.1,28.3,30.16,NE,45,0.0,1.0,79,0.00,,,0.00,LWC V2.11 B50,2013-02-22 12:20:00,
2013-02-22 04:25:00,33.6,28.7,30.18,North,0,0.0,1.0,82,0.00,,,0.00,WeatherCatV1.15B25,2013-02-22 12:25:00,
2013-02-22 04:30:00,34.1,28.3,30.16,NE,45,0.0,1.0,79,0.00,,,0.00,LWC V2.11 B50,2013-02-22 12:30:00,
2013-02-22 04:35:00,33.6,28.7,30.18,North,0,0.0,1.0,82,0.00,,,0.00,WeatherCatV1.15B25,2013-02-22 12:35:00,
2013-02-22 04:40:00,34.1,28.3,30.16,NE,45,0.0,1.0,79,0.00,,,0.00,LWC V2.11 B50,2013-02-22 12:40:00,
2013-02-22 04:45:00,33.6,28.7,30.18,North,0,0.0,1.0,82,0.00,,,0.00,WeatherCatV1.15B25,2013-02-22 12:45:00,
2013-02-22 04:50:00,34.1,28.3,30.16,NE,45,0.0,1.0,79,0.00,,,0.00,LWC V2.11 B50,2013-02-22 12:50:00,
2013-02-22 04:55:00,33.6,28.7,30.18,North,0,0.0,1.0,82,0.00,,,0.00,WeatherCatV1.15B25,2013-02-22 12:55:00,
2013-02-22 05:00:00,33.6,28.7,30.18,North,0,0.0,1.0,82,0.00,,,0.00,LWC V2.11 B50,2013-02-22 13:00:00,
2013-02-22 05:05:00,32.0,27.4,30.19,North,0,0.0,1.0,83,0.00,,,0.00,WeatherCatV1.15B25,2013-02-22 13:05:00,
2013-02-22 05:10:00,33.6,28.7,30.18,North,0,0.0,1.0,82,0.00,,,0.00,LWC V2.11 B50,2013-02-22 13:10:00,
2013-02-22 05:15:00,32.0,27.4,30.19,North,0,0.0,1.0,83,0.00,,,0.00,WeatherCatV1.15B25,2013-02-22 13:15:00,
2013-02-22 05:20:00,33.6,28.7,30.18,North,0,0.0,1.0,82,0.00,,,0.00,LWC V2.11 B50,2013-02-22 13:20:00,
2013-02-22 05:25:00,32.0,27.4,30.19,North,0,0.0,1.0,83,0.00,,,0.00,WeatherCatV1.15B25,2013-02-22 13:25:00,
2013-02-22 05:30:00,33.6,28.7,30.18,North,0,0.0,1.0,82,0.00,,,0.00,LWC V2.11 B50,2013-02-22 13:30:00,
2013-02-22 05:35:00,32.0,27.4,30.19,North,0,0.0,1.0,83,0.00,,,0.00,WeatherCatV1.15B25,2013-02-22 13:35:00,
2013-02-22 05:40:00,33.6,28.7,30.18,North,0,0.0,1.0,82,0.00,,,0.00,LWC V2.11 B50,2013-02-22 13:40:00,
2013-02-22 05:45:00,32.0,27.4,30.19,North,0,0.0,1.0,83,0.00,,,0.00,WeatherCatV1.15B25,2013-02-22 13:45:00,
2013-02-22 05:50:00,33.6,28.7,30.18,North,0,0.0,1.0,82,0.00,,,0.00,LWC V2.11 B50,2013-02-22 13:50:00,
2013-02-22 05:55:00,32.0,27.4,30.19,North,0,0.0,1.0,83,0.00,,,0.00,WeatherCatV1.15B25,2013-02-22 13:55:00,
2013-02-22 06:00:00,33.6,28.7,30.18,North,0,0.0,1.0,82,0.00,,,0.00,LWC V2.11 B50,2013-02-22 14:00:00,
2013-02-22 06:05:00,30.9,27.2,30.20,East,90,0.0,3.0,86,0.00,,,0.00,WeatherCatV1.15B25,2013-02-22 14:05:00,
2013-02-22 06:10:00,32.0,27.4,30.19,North,0,0.0,1.0,83,0.00,,,0.00,LWC V2.11 B50,2013-02-22 14:10:00,
2013-02-22 06:15:00,30.9,27.2,30.20,East,90,0.0,3.0,86,0.00,,,0.00,WeatherCatV1.15B25,2013-02-22 14:15:00,
2013-02-22 06:20:00,32.0,27.4,30.19,North,0,0.0,1.0,83,0.00,,,0.00,LWC V2.11 B50,2013-02-22 14:20:00,
2013-02-22 06:25:00,30.9,27.2,30.20,East,90,0.0,3.0,86,0.00,,,0.00,WeatherCatV1.15B25,2013-02-22 14:25:00,
2013-02-22 06:30:00,32.0,27.4,30.19,North,0,0.0,1.0,83,0.00,,,0.00,LWC V2.11 B50,2013-02-22 14:30:00,
2013-02-22 06:35:00,30.9,27.2,30.20,East,90,0.0,3.0,86,0.00,,,0.00,WeatherCatV1.15B25,2013-02-22 14:35:00,
2013-02-22 06:40:00,32.0,27.4,30.19,North,0,0.0,1.0,83,0.00,,,0.00,LWC V2.11 B50,2013-02-22 14:40:00,
2013-02-22 06:45:00,30.9,27.2,30.20,East,90,0.0,3.0,86,0.00,,,0.00,WeatherCatV1.15B25,2013-02-22 14:45:00,
2013-02-22 06:50:00,32.0,27.4,30.19,North,0,0.0,1.0,83,0.00,,,0.00,LWC V2.11 B50,2013-02-22 14:50:00,
2013-02-22 06:55:00,30.9,27.2,30.20,East,90,0.0,3.0,86,0.00,,,0.00,WeatherCatV1.15B25,2013-02-22 14:55:00,
2013-02-22 07:00:00,30.9,27.2,30.20,East,90,0.0,3.0,86,0.00,,,0.00,LWC V2.11 B50,2013-02-22 15:00:00,
2013-02-22 07:05:00,33.0,28.4,30.21,ENE,68,0.0,2.0,83,0.00,,,0.00,WeatherCatV1.15B25,2013-02-22 15:05:00,
2013-02-22 07:10:00,30.9,27.2,30.20,East,90,0.0,3.0,86,0.00,,,0.00,LWC V2.11 B50,2013-02-22 15:10:00,
2013-02-22 07:15:00,33.0,28.4,30.21,ENE,68,0.0,2.0,83,0.00,,,0.00,WeatherCatV1.15B25,2013-02-22 15:15:00,
2013-02-22 07:20:00,30.9,27.2,30.20,East,90,0.0,3.0,86,0.00,,,0.00,LWC V2.11 B50,2013-02-22 15:20:00,
2013-02-22 07:25:00,33.0,28.4,30.21,ENE,68,0.0,2.0,83,0.00,,,0.00,WeatherCatV1.15B25,2013-02-22 15:25:00,
2013-02-22 07:30:00,30.9,27.2,30.20,East,90,0.0,3.0,86,0.00,,,0.00,LWC V2.11 B50,2013-02-22 15:30:00,
2013-02-22 07:35:00,33.0,28.4,30.21,ENE,68,0.0,2.0,83,0.00,,,0.00,WeatherCatV1.15B25,2013-02-22 15:35:00,
2013-02-22 07:40:00,30.9,27.2,30.20,East,90,0.0,3.0,86,0.00,,,0.00,LWC V2.11 B50,2013-02-22 15:40:00,
2013-02-22 07:45:00,33.0,28.4,30.21,ENE,68,0.0,2.0,83,0.00,,,0.00,WeatherCatV1.15B25,2013-02-22 15:45:00,
2013-02-22 07:50:00,30.9,27.2,30.20,East,90,0.0,3.0,86,0.00,,,0.00,LWC V2.11 B50,2013-02-22 15:50:00,
2013-02-22 07:55:00,33.0,28.4,30.21,ENE,68,0.0,2.0,83,0.00,,,0.00,WeatherCatV1.15B25,2013-02-22 15:55:00,
2013-02-22 08:00:00,33.0,28.4,30.21,ENE,68,0.0,2.0,83,0.00,,,0.00,LWC V2.11 B50,2013-02-22 16:00:00,
2013-02-22 08:05:00,39.4,30.1,30.23,ENE,68,0.0,1.0,69,0.00,,,0.00,WeatherCatV1.15B25,2013-02-22 16:05:00,
2013-02-22 08:10:00,33.0,28.4,30.21,ENE,68,0.0,2.0,83,0.00,,,0.00,LWC V2.11 B50,2013-02-22 16:10:00,
2013-02-22 08:15:00,39.4,30.1,30.23,ENE,68,0.0,1.0,69,0.00,,,0.00,WeatherCatV1.15B25,2013-02-22 16:15:00,
2013-02-22 08:20:00,33.0,28.4,30.21,ENE,68,0.0,2.0,83,0.00,,,0.00,LWC V2.11 B50,2013-02-22 16:20:00,
2013-02-22 08:25:00,39.4,30.1,30.23,ENE,68,0.0,1.0,69,0.00,,,0.00,WeatherCatV1.15B25,2013-02-22 16:25:00,
2013-02-22 08:30:00,33.0,28.4,30.21,ENE,68,0.0,2.0,83,0.00,,,0.00,LWC V2.11 B50,2013-02-22 16:30:00,
2013-02-22 08:35:00,39.4,30.1,30.23,ENE,68,0.0,1.0,69,0.00,,,0.00,WeatherCatV1.15B25,2013-02-22 16:35:00,
2013-02-22 08:40:00,33.0,28.4,30.21,ENE,68,0.0,2.0,83,0.00,,,0.00,LWC V2.11 B50,2013-02-22 16:40:00,
2013-02-22 08:45:00,39.4,30.1,30.23,ENE,68,0.0,1.0,69,0.00,,,0.00,WeatherCatV1.15B25,2013-02-22 16:45:00,
2013-02-22 08:50:00,33.0,28.4,30.21,ENE,68,0.0,2.0,83,0.00,,,0.00,LWC V2.11 B50,2013-02-22 16:50:00,
2013-02-22 08:55:00,39.4,30.1,30.23,ENE,68,0.0,1.0,69,0.00,,,0.00,WeatherCatV1.15B25,2013-02-22 16:55:00,
2013-02-22 09:00:00,33.0,28.4,30.21,ENE,68,0.0,2.0,83,0.00,,,0.00,LWC V2.11 B50,2013-02-22 17:00:00,
2013-02-22 09:05:00,46.0,28.9,30.23,WSW,248,0.0,3.0,51,0.00,,,0.00,WeatherCatV1.15B25,2013-02-22 17:05:00,
2013-02-22 09:10:00,39.4,30.1,30.23,ENE,68,0.0,1.0,69,0.00,,,0.00,LWC V2.11 B50,2013-02-22 17:10:00,
2013-02-22 09:15:00,46.0,28.9,30.23,WSW,248,0.0,3.0,51,0.00,,,0.00,WeatherCatV1.15B25,2013-02-22 17:15:00,
2013-02-22 09:20:00,39.4,30.1,30.23,ENE,68,0.0,1.0,69,0.00,,,0.00,LWC V2.11 B50,2013-02-22 17:20:00,
2013-02-22 09:25:00,46.0,28.9,30.23,WSW,248,0.0,3.0,51,0.00,,,0.00,WeatherCatV1.15B25,2013-02-22 17:25:00,
2013-02-22 09:30:00,39.4,30.1,30.23,ENE,68,0.0,1.0,69,0.00,,,0.00,LWC V2.11 B50,2013-02-22 17:30:00,
2013-02-22 09:35:00,46.0,28.9,30.23,WSW,248,0.0,3.0,51,0.00,,,0.00,WeatherCatV1.15B25,2013-02-22 17:35:00,
2013-02-22 09:40:00,39.4,30.1,30.23,ENE,68,0.0,1.0,69,0.00,,,0.00,LWC V2.11 B50,2013-02-22 17:40:00,
2013-02-22 09:45:00,46.0,28.9,30.23,WSW,248,0.0,3.0,51,0.00,,,0.00,WeatherCatV1.15B25,2013-02-22 17:45:00,
2013-02-22 09:50:00,39.4,30.1,30.23,ENE,68,0.0,1.0,69,0.00,,,0.00,LWC V2.11 B50,2013-02-22 17:50:00,
2013-02-22 09:55:00,46.0,28.9,30.23,WSW,248,0.0,3.0,51,0.00,,,0.00,WeatherCatV1.15B25,2013-02-22 17:55:00,
2013-02-22 10:00:00,39.4,30.1,30.23,ENE,68,0.0,1.0,69,0.00,,,0.00,LWC V2.11 B50,2013-02-22 18:00:00,
2013-02-22 10:05:00,49.4,31.0,30.22,WSW,248,0.0,3.0,49,0.00,,,0.00,WeatherCatV1.15B25,2013-02-22 18:05:00,
2013-02-22 10:10:00,46.0,28.9,30.23,WSW,248,0.0,3.0,51,0.00,,,0.00,LWC V2.11 B50,2013-02-22 18:10:00,
2013-02-22 10:15:00,49.4,31.0,30.22,WSW,248,0.0,3.0,49,0.00,,,0.00,WeatherCatV1.15B25,2013-02-22 18:15:00,
2013-02-22 10:20:00,46.0,28.9,30.23,WSW,248,0.0,3.0,51,0.00,,,0.00,LWC V2.11 B50,2013-02-22 18:20:00,
2013-02-22 10:25:00,49.4,31.0,30.22,WSW,248,0.0,3.0,49,0.00,,,0.00,WeatherCatV1.15B25,2013-02-22 18:25:00,
2013-02-22 10:30:00,46.0,28.9,30.23,WSW,248,0.0,3.0,51,0.00,,,0.00,LWC V2.11 B50,2013-02-22 18:30:00,
2013-02-22 10:35:00,49.4,31.0,30.22,WSW,248,0.0,3.0,49,0.00,,,0.00,WeatherCatV1.15B25,2013-02-22 18:35:00,
2013-02-22 10:40:00,46.0,28.9,30.23,WSW,248,0.0,3.0,51,0.00,,,0.00,LWC V2.11 B50,2013-02-22 18:40:00,
2013-02-22 10:45:00,49.4,31.0,30.22,WSW,248,0.0,3.0,49,0.00,,,0.00,WeatherCatV1.15B25,2013-02-22 18:45:00,
2013-02-22 10:50:00,46.0,28.9,30.23,WSW,248,0.0,3.0,51,0.00,,,0.00,LWC V2.11 B50,2013-02-22 18:50:00,
2013-02-22 10:55:00,49.4,31.0,30.22,WSW,248,0.0,3.0,49,0.00,,,0.00,WeatherCatV1.15B25,2013-02-22 18:55:00,
2013-02-22 11:00:00,46.0,28.9,30.23,WSW,248,0.0,3.0,51,0.00,,,0.00,LWC V2.11 B50,2013-02-22 19:00:00,
2013-02-22 11:05:00,52.4,32.2,30.22,WSW,248,1.0,5.0,46,0.00,,,0.00,WeatherCatV1.15B25,2013-02-22 19:05:00,
2013-02-22 11:10:00,49.4,31.0,30.22,WSW,248,0.0,3.0,49,0.00,,,0.00,LWC V2.11 B50,2013-02-22 19:10:00,
2013-02-22 11:15:00,52.4,32.2,30.22,WSW,248,1.0,5.0,46,0.00,,,0.00,WeatherCatV1.15B25,2013-02-22 19:15:00,
2013-02-22 11:20:00,49.4,31.0,30.22,WSW,248,0.0,3.0,49,0.00,,,0.00,LWC V2.11 B50,2013-02-22 19:20:00,
2013-02-22 11:25:00,52.4,32.2,30.22,WSW,248,1.0,5.0,46,0.00,,,0.00,WeatherCatV1.15B25,2013-02-22 19:25:00,
2013-02-22 11:30:00,49.4,31.0,30.22,WSW,248,0.0,3.0,49,0.00,,,0.00,LWC V2.11 B50,2013-02-22 19:30:00,
2013-02-22 11:35:00,52.4,32.2,30.22,WSW,248,1.0,5.0,46,0.00,,,0.00,WeatherCatV1.15B25,2013-02-22 19:35:00,
2013-02-22 11:40:00,49.4,31.0,30.22,WSW,248,0.0,3.0,49,0.00,,,0.00,LWC V2.11 B50,2013-02-22 19:40:00,
2013-02-22 11:45:00,52.4,32.2,30.22,WSW,248,1.0,5.0,46,0.00,,,0.00,WeatherCatV1.15B25,2013-02-22 19:45:00,
2013-02-22 11:50:00,49.4,31.0,30.22,WSW,248,0.0,3.0,49,0.00,,,0.00,LWC V2.11 B50,2013-02-22 19:50:00,
2013-02-22 11:55:00,52.4,32.2,30.22,WSW,248,1.0,5.0,46,0.00,,,0.00,WeatherCatV1.15B25,2013-02-22 19:55:00,
2013-02-22 12:00:00,49.4,31.0,30.22,WSW,248,0.0,3.0,49,0.00,,,0.00,LWC V2.11 B50,2013-02-22 20:00:00,
2013-02-22 12:05:00,53.8,33.0,30.19,West,270,2.0,6.0,45,0.00,,,0.00,WeatherCatV1.15B25,2013-02-22 20:05:00,
2013-02-22 12:10:00,52.4,32.2,30.22,WSW,248,1.0,5.0,46,0.00,,,0.00,LWC V2.11 B50,2013-02-22 20:10:00,
2013-02-22 12:15:00,53.8,33.0,30.19,West,270,2.0,6.0,45,0.00,,,0.00,WeatherCatV1.15B25,2013-02-22 20:15:00,
2013-02-22 12:20:00,52.4,32.2,30.22,WSW,248,1.0,5.0,46,0.00,,,0.00,LWC V2.11 B50,2013-02-22 20:20:00,
2013-02-22 12:25:00,53.8,33.0,30.19,West,270,2.0,6.0,45,0.00,,,0.00,WeatherCatV1.15B25,2013-02-22 20:25:00,
2013-02-22 12:30:00,52.4,32.2,30.22,WSW,248,1.0,5.0,46,0.00,,,0.00,LWC V2.11 B50,2013-02-22 20:30:00,
2013-02-22 12:35:00,53.8,33.0,30.19,West,270,2.0,6.0,45,0.00,,,0.00,WeatherCatV1.15B25,2013-02-22 20:35:00,
2013-02-22 12:40:00,52.4,32.2,30.22,WSW,248,1.0,5.0,46,0.00,,,0.00,LWC V2.11 B50,2013-02-22 20:40:00,
2013-02-22 12:45:00,53.8,33.0,30.19,West,270,2.0,6.0,45,0.00,,,0.00,WeatherCatV1.15B25,2013-02-22 20:45:00,
2013-02-22 12:50:00,52.4,32.2,30.22,WSW,248,1.0,5.0,46,0.00,,,0.00,LWC V2.11 B50,2013-02-22 20:50:00,
2013-02-22 12:55:00,53.8,33.0,30.19,West,270,2.0,6.0,45,0.00,,,0.00,WeatherCatV1.15B25,2013-02-22 20:55:00,
2013-02-22 13:00:00,53.8,33.0,30.19,West,270,2.0,6.0,45,0.00,,,0.00,LWC V2.11 B50,2013-02-22 21:00:00,
2013-02-22 13:05:00,53.3,34.1,30.19,West,270,1.0,6.0,48,0.00,,,0.00,WeatherCatV1.15B25,2013-02-22 21:05:00,
2013-02-22 13:10:00,53.8,33.0,30.19,West,270,2.0,6.0,45,0.00,,,0.00,LWC V2.11 B50,2013-02-22 21:10:00,
2013-02-22 13:15:00,53.3,34.1,30.19,West,270,1.0,6.0,48,0.00,,,0.00,WeatherCatV1.15B25,2013-02-22 21:15:00,
2013-02-22 13:20:00,53.8,33.0,30.19,West,270,2.0,6.0,45,0.00,,,0.00,LWC V2.11 B50,2013-02-22 21:20:00,
2013-02-22 13:25:00,53.3,34.1,30.19,West,270,1.0,6.0,48,0.00,,,0.00,WeatherCatV1.15B25,2013-02-22 21:25:00,
2013-02-22 13:30:00,53.8,33.0,30.19,West,270,2.0,6.0,45,0.00,,,0.00,LWC V2.11 B50,2013-02-22 21:30:00,
2013-02-22 13:35:00,53.3,34.1,30.19,West,270,1.0,6.0,48,0.00,,,0.00,WeatherCatV1.15B25,2013-02-22 21:35:00,
2013-02-22 13:40:00,53.8,33.0,30.19,West,270,2.0,6.0,45,0.00,,,0.00,LWC V2.11 B50,2013-02-22 21:40:00,
2013-02-22 13:45:00,53.3,34.1,30.19,West,270,1.0,6.0,48,0.00,,,0.00,WeatherCatV1.15B25,2013-02-22 21:45:00,
2013-02-22 13:50:00,53.8,33.0,30.19,West,270,2.0,6.0,45,0.00,,,0.00,LWC V2.11 B50,2013-02-22 21:50:00,
2013-02-22 13:55:00,53.3,34.1,30.19,West,270,1.0,6.0,48,0.00,,,0.00,WeatherCatV1.15B25,2013-02-22 21:55:00,
2013-02-22 14:00:00,53.3,34.1,30.19,West,270,1.0,6.0,48,0.00,,,0.00,LWC V2.11 B50,2013-02-22 22:00:00,
2013-02-22 14:05:00,53.6,34.9,30.18,West,270,1.0,7.0,49,0.00,,,0.00,WeatherCatV1.15B25,2013-02-22 22:05:00,
2013-02-22 14:10:00,53.3,34.1,30.19,West,270,1.0,6.0,48,0.00,,,0.00,LWC V2.11 B50,2013-02-22 22:10:00,
2013-02-22 14:15:00,53.6,34.9,30.18,West,270,1.0,7.0,49,0.00,,,0.00,WeatherCatV1.15B25,2013-02-22 22:15:00,
2013-02-22 14:20:00,53.3,34.1,30.19,West,270,1.0,6.0,48,0.00,,,0.00,LWC V2.11 B50,2013-02-22 22:20:00,
2013-02-22 14:25:00,53.6,34.9,30.18,West,270,1.0,7.0,49,0.00,,,0.00,WeatherCatV1.15B25,2013-02-22 22:25:00,
2013-02-22 14:30:00,53.3,34.1,30.19,West,270,1.0,6.0,48,0.00,,,0.00,LWC V2.11 B50,2013-02-22 22:30:00,
2013-02-22 14:35:00,53.6,34.9,30.18,West,270,1.0,7.0,49,0.00,,,0.00,WeatherCatV1.15B25,2013-02-22 22:35:00,
2013-02-22 14:40:00,53.3,34.1,30.19,West,270,1.0,6.0,48,0.00,,,0.00,LWC V2.11 B50,2013-02-22 22:40:00,
2013-02-22 14:45:00,53.6,34.9,30.18,West,270,1.0,7.0,49,0.00,,,0.00,WeatherCatV1.15B25,2013-02-22 22:45:00,
2013-02-22 14:50:00,53.3,34.1,30.19,West,270,1.0,6.0,48,0.00,,,0.00,LWC V2.11 B50,2013-02-22 22:50:00,
2013-02-22 14:55:00,53.6,34.9,30.18,West,270,1.0,7.0,49,0.00,,,0.00,WeatherCatV1.15B25,2013-02-22 22:55:00,
2013-02-22 15:00:00,53.6,34.9,30.18,West,270,1.0,7.0,49,0.00,,,0.00,LWC V2.11 B50,2013-02-22 23:00:00,
2013-02-22 15:05:00,54.5,34.7,30.18,SE,135,0.0,5.0,47,0.00,,,0.00,WeatherCatV1.15B25,2013-02-22 23:05:00,
2013-02-22 15:10:00,53.6,34.9,30.18,West,270,1.0,7.0,49,0.00,,,0.00,LWC V2.11 B50,2013-02-22 23:10:00,
2013-02-22 15:15:00,54.5,34.7,30.18,SE,135,0.0,5.0,47,0.00,,,0.00,WeatherCatV1.15B25,2013-02-22 23:15:00,
2013-02-22 15:20:00,53.6,34.9,30.18,West,270,1.0,7.0,49,0.00,,,0.00,LWC V2.11 B50,2013-02-22 23:20:00,
2013-02-22 15:25:00,54.5,34.7,30.18,SE,135,0.0,5.0,47,0.00,,,0.00,WeatherCatV1.15B25,2013-02-22 23:25:00,
2013-02-22 15:30:00,53.6,34.9,30.18,West,270,1.0,7.0,49,0.00,,,0.00,LWC V2.11 B50,2013-02-22 23:30:00,
2013-02-22 15:35:00,54.5,34.7,30.18,SE,135,0.0,5.0,47,0.00,,,0.00,WeatherCatV1.15B25,2013-02-22 23:35:00,
2013-02-22 15:40:00,53.6,34.9,30.18,West,270,1.0,7.0,49,0.00,,,0.00,LWC V2.11 B50,2013-02-22 23:40:00,
2013-02-22 15:45:00,54.5,34.7,30.18,SE,135,0.0,5.0,47,0.00,,,0.00,WeatherCatV1.15B25,2013-02-22 23:45:00,
2013-02-22 15:50:00,53.6,34.9,30.18,West,270,1.0,7.0,49,0.00,,,0.00,LWC V2.11 B50,2013-02-22 23:50:00,
2013-02-22 15:55:00,54.5,34.7,30.18,SE,135,0.0,5.0,47,0.00,,,0.00,WeatherCatV1.15B25,2013-02-22 23:55:00,
2013-02-22 16:00:00,53.6,34.9,30.18,West,270,1.0,7.0,49,0.00,,,0.00,LWC V2.11 B50,2013-02-23 00:00:00,
2013-02-22 16:05:00,53.1,35.5,30.17,West,270,0.0,3.0,51,0.00,,,0.00,WeatherCatV1.15B25,2013-02-23 00:05:00,
2013-02-22 16:10:00,54.5,34.7,30.18,SE,135,0.0,5.0,47,0.00,,,0.00,LWC V2.11 B50,2013-02-23 00:10:00,
2013-02-22 16:15:00,53.1,35.5,30.17,West,270,0.0,3.0,51,0.00,,,0.00,WeatherCatV1.15B25,2013-02-23 00:15:00,
2013-02-22 16:20:00,54.5,34.7,30.18,SE,135,0.0,5.0,47,0.00,,,0.00,LWC V2.11 B50,2013-02-23 00:20:00,
2013-02-22 16:25:00,53.1,35.5,30.17,West,270,0.0,3.0,51,0.00,,,0.00,WeatherCatV1.15B25,2013-02-23 00:25:00,
2013-02-22 16:30:00,54.5,34.7,30.18,SE,135,0.0,5.0,47,0.00,,,0.00,LWC V2.11 B50,2013-02-23 00:30:00,
2013-02-22 16:35:00,53.1,35.5,30.17,West,270,0.0,3.0,51,0.00,,,0.00,WeatherCatV1.15B25,2013-02-23 00:35:00,
2013-02-22 16:40:00,54.5,34.7,30.18,SE,135,0.0,5.0,47,0.00,,,0.00,LWC V2.11 B50,2013-02-23 00:40:00,
2013-02-22 16:45:00,53.1,35.5,30.17,West,270,0.0,3.0,51,0.00,,,0.00,WeatherCatV1.15B25,2013-02-23 00:45:00,
2013-02-22 16:50:00,54.5,34.7,30.18,SE,135,0.0,5.0,47,0.00,,,0.00,LWC V2.11 B50,2013-02-23 00:50:00,
2013-02-22 16:55:00,53.1,35.5,30.17,West,270,0.0,3.0,51,0.00,,,0.00,WeatherCatV1.15B25,2013-02-23 00:55:00,
2013-02-22 17:00:00,53.1,35.5,30.17,West,270,0.0,3.0,51,0.00,,,0.00,LWC V2.11 B50,2013-02-23 01:00:00,
2013-02-22 17:05:00,48.9,35.6,30.17,West,270,0.0,0.0,60,0.00,,,0.00,WeatherCatV1.15B25,2013-02-23 01:05:00,
2013-02-22 17:10:00,53.1,35.5,30.17,West,270,0.0,3.0,51,0.00,,,0.00,LWC V2.11 B50,2013-02-23 01:10:00,
2013-02-22 17:15:00,48.9,35.6,30.17,West,270,0.0,0.0,60,0.00,,,0.00,WeatherCatV1.15B25,2013-02-23 01:15:00,
2013-02-22 17:20:00,53.1,35.5,30.17,West,270,0.0,3.0,51,0.00,,,0.00,LWC V2.11 B50,2013-02-23 01:20:00,
2013-02-22 17:25:00,48.9,35.6,30.17,West,270,0.0,0.0,60,0.00,,,0.00,WeatherCatV1.15B25,2013-02-23 01:25:00,
2013-02-22 17:30:00,53.1,35.5,30.17,West,270,0.0,3.0,51,0.00,,,0.00,LWC V2.11 B50,2013-02-23 01:30:00,
2013-02-22 17:35:00,48.9,35.6,30.17,West,270,0.0,0.0,60,0.00,,,0.00,WeatherCatV1.15B25,2013-02-23 01:35:00,
2013-02-22 17:40:00,53.1,35.5,30.17,West,270,0.0,3.0,51,0.00,,,0.00,LWC V2.11 B50,2013-02-23 01:40:00,
2013-02-22 17:45:00,48.9,35.6,30.17,West,270,0.0,0.0,60,0.00,,,0.00,WeatherCatV1.15B25,2013-02-23 01:45:00,
2013-02-22 17:50:00,53.1,35.5,30.17,West,270,0.0,3.0,51,0.00,,,0.00,LWC V2.11 B50,2013-02-23 01:50:00,
2013-02-22 17:55:00,48.9,35.6,30.17,West,270,0.0,0.0,60,0.00,,,0.00,WeatherCatV1.15B25,2013-02-23 01:55:00,
2013-02-22 18:00:00,48.9,35.6,30.17,West,270,0.0,0.0,60,0.00,,,0.00,LWC V2.11 B50,2013-02-23 02:00:00,
2013-02-22 18:05:00,46.3,36.0,30.17,West,270,0.0,0.0,67,0.00,,,0.00,WeatherCatV1.15B25,2013-02-23 02:05:00,
2013-02-22 18:10:00,48.9,35.6,30.17,West,270,0.0,0.0,60,0.00,,,0.00,LWC V2.11 B50,2013-02-23 02:10:00,
2013-02-22 18:15:00,46.3,36.0,30.17,West,270,0.0,0.0,67,0.00,,,0.00,WeatherCatV1.15B25,2013-02-23 02:15:00,
2013-02-22 18:20:00,48.9,35.6,30.17,West,270,0.0,0.0,60,0.00,,,0.00,LWC V2.11 B50,2013-02-23 02:20:00,
2013-02-22 18:25:00,46.3,36.0,30.17,West,270,0.0,0.0,67,0.00,,,0.00,WeatherCatV1.15B25,2013-02-23 02:25:00,
2013-02-22 18:30:00,48.9,35.6,30.17,West,270,0.0,0.0,60,0.00,,,0.00,LWC V2.11 B50,2013-02-23 02:30:00,
2013-02-22 18:35:00,46.3,36.0,30.17,West,270,0.0,0.0,67,0.00,,,0.00,WeatherCatV1.15B25,2013-02-23 02:35:00,
2013-02-22 18:40:00,48.9,35.6,30.17,West,270,0.0,0.0,60,0.00,,,0.00,LWC V2.11 B50,2013-02-23 02:40:00,
2013-02-22 18:45:00,46.3,36.0,30.17,West,270,0.0,0.0,67,0.00,,,0.00,WeatherCatV1.15B25,2013-02-23 02:45:00,
2013-02-22 18:50:00,48.9,35.6,30.17,West,270,0.0,0.0,60,0.00,,,0.00,LWC V2.11 B50,2013-02-23 02:50:00,
2013-02-22 18:55:00,46.3,36.0,30.17,West,270,0.0,0.0,67,0.00,,,0.00,WeatherCatV1.15B25,2013-02-23 02:55:00,
2013-02-22 19:00:00,48.9,35.6,30.17,West,270,0.0,0.0,60,0.00,,,0.00,LWC V2.11 B50,2013-02-23 03:00:00,
2013-02-22 19:05:00,45.0,36.5,30.17,West,270,0.0,0.0,72,0.00,,,0.00,WeatherCatV1.15B25,2013-02-23 03:05:00,
2013-02-22 19:10:00,46.3,36.0,30.17,West,270,0.0,0.0,67,0.00,,,0.00,LWC V2.11 B50,2013-02-23 03:10:00,
2013-02-22 19:15:00,45.0,36.5,30.17,West,270,0.0,0.0,72,0.00,,,0.00,WeatherCatV1.15B25,2013-02-23 03:15:00,
2013-02-22 19:20:00,46.3,36.0,30.17,West,270,0.0,0.0,67,0.00,,,0.00,LWC V2.11 B50,2013-02-23 03:20:00,
2013-02-22 19:25:00,45.0,36.5,30.17,West,270,0.0,0.0,72,0.00,,,0.00,WeatherCatV1.15B25,2013-02-23 03:25:00,
2013-02-22 19:30:00,46.3,36.0,30.17,West,270,0.0,0.0,67,0.00,,,0.00,LWC V2.11 B50,2013-02-23 03:30:00,
2013-02-22 19:35:00,45.0,36.5,30.17,West,270,0.0,0.0,72,0.00,,,0.00,WeatherCatV1.15B25,2013-02-23 03:35:00,
2013-02-22 19:40:00,46.3,36.0,30.17,West,270,0.0,0.0,67,0.00,,,0.00,LWC V2.11 B50,2013-02-23 03:40:00,
2013-02-22 19:45:00,45.0,36.5,30.17,West,270,0.0,0.0,72,0.00,,,0.00,WeatherCatV1.15B25,2013-02-23 03:45:00,
2013-02-22 19:50:00,46.3,36.0,30.17,West,270,0.0,0.0,67,0.00,,,0.00,LWC V2.11 B50,2013-02-23 03:50:00,
2013-02-22 19:55:00,45.0,36.5,30.17,West,270,0.0,0.0,72,0.00,,,0.00,WeatherCatV1.15B25,2013-02-23 03:55:00,
2013-02-22 20:00:00,46.3,36.0,30.17,West,270,0.0,0.0,67,0.00,,,0.00,LWC V2.11 B50,2013-02-23 04:00:00,
2013-02-22 20:05:00,44.3,36.2,30.18,West,270,0.0,0.0,73,0.00,,,0.00,WeatherCatV1.15B25,2013-02-23 04:05:00,
2013-02-22 20:10:00,45.0,36.5,30.17,West,270,0.0,0.0,72,0.00,,,0.00,LWC V2.11 B50,2013-02-23 04:10:00,
2013-02-22 20:15:00,44.3,36.2,30.18,West,270,0.0,0.0,73,0.00,,,0.00,WeatherCatV1.15B25,2013-02-23 04:15:00,
2013-02-22 20:20:00,45.0,36.5,30.17,West,270,0.0,0.0,72,0.00,,,0.00,LWC V2.11 B50,2013-02-23 04:20:00,
2013-02-22 20:25:00,44.3,36.2,30.18,West,270,0.0,0.0,73,0.00,,,0.00,WeatherCatV1.15B25,2013-02-23 04:25:00,
2013-02-22 20:30:00,45.0,36.5,30.17,West,270,0.0,0.0,72,0.00,,,0.00,LWC V2.11 B50,2013-02-23 04:30:00,
2013-02-22 20:35:00,44.3,36.2,30.18,West,270,0.0,0.0,73,0.00,,,0.00,WeatherCatV1.15B25,2013-02-23 04:35:00,
2013-02-22 20:40:00,45.0,36.5,30.17,West,270,0.0,0.0,72,0.00,,,0.00,LWC V2.11 B50,2013-02-23 04:40:00,
2013-02-22 20:45:00,44.3,36.2,30.18,West,270,0.0,0.0,73,0.00,,,0.00,WeatherCatV1.15B25,2013-02-23 04:45:00,
2013-02-22 20:50:00,45.0,36.5,30.17,West,270,0.0,0.0,72,0.00,,,0.00,LWC V2.11 B50,2013-02-23 04:50:00,
2013-02-22 20:55:00,44.3,36.2,30.18,West,270,0.0,0.0,73,0.00,,,0.00,WeatherCatV1.15B25,2013-02-23 04:55:00,
2013-02-22 21:00:00,45.0,36.5,30.17,West,270,0.0,0.0,72,0.00,,,0.00,LWC V2.11 B50,2013-02-23 05:00:00,
2013-02-22 21:05:00,45.2,37.1,30.17,West,270,0.0,0.0,73,0.00,,,0.00,WeatherCatV1.15B25,2013-02-23 05:05:00,
2013-02-22 21:10:00,44.3,36.2,30.18,West,270,0.0,0.0,73,0.00,,,0.00,LWC V2.11 B50,2013-02-23 05:10:00,
2013-02-22 21:15:00,45.2,37.1,30.17,West,270,0.0,0.0,73,0.00,,,0.00,WeatherCatV1.15B25,2013-02-23 05:15:00,
2013-02-22 21:20:00,44.3,36.2,30.18,West,270,0.0,0.0,73,0.00,,,0.00,LWC V2.11 B50,2013-02-23 05:20:00,
2013-02-22 21:25:00,45.2,37.1,30.17,West,270,0.0,0.0,73,0.00,,,0.00,WeatherCatV1.15B25,2013-02-23 05:25:00,
2013-02-22 21:30:00,44.3,36.2,30.18,West,270,0.0,0.0,73,0.00,,,0.00,LWC V2.11 B50,2013-02-23 05:30:00,
2013-02-22 21:35:00,45.2,37.1,30.17,West,270,0.0,0.0,73,0.00,,,0.00,WeatherCatV1.15B25,2013-02-23 05:35:00,
2013-02-22 21:40:00,44.3,36.2,30.18,West,270,0.0,0.0,73,0.00,,,0.00,LWC V2.11 B50,2013-02-23 05:40:00,
2013-02-22 21:45:00,45.2,37.1,30.17,West,270,0.0,0.0,73,0.00,,,0.00,WeatherCatV1.15B25,2013-02-23 05:45:00,
2013-02-22 21:50:00,44.3,36.2,30.18,West,270,0.0,0.0,73,0.00,,,0.00,LWC V2.11 B50,2013-02-23 05:50:00,
2013-02-22 21:55:00,45.2,37.1,30.17,West,270,0.0,0.0,73,0.00,,,0.00,WeatherCatV1.15B25,2013-02-23 05:55:00,
2013-02-22 22:00:00,45.2,37.1,30.17,West,270,0.0,0.0,73,0.00,,,0.00,LWC V2.11 B50,2013-02-23 06:00:00,
2013-02-22 22:05:00,45.2,37.4,30.19,West,270,0.0,0.0,74,0.00,,,0.00,WeatherCatV1.15B25,2013-02-23 06:05:00,
2013-02-22 22:10:00,45.2,37.1,30.17,West,270,0.0,0.0,73,0.00,,,0.00,LWC V2.11 B50,2013-02-23 06:10:00,
2013-02-22 22:15:00,45.2,37.4,30.19,West,270,0.0,0.0,74,0.00,,,0.00,WeatherCatV1.15B25,2013-02-23 06:15:00,
2013-02-22 22:20:00,45.2,37.1,30.17,West,270,0.0,0.0,73,0.00,,,0.00,LWC V2.11 B50,2013-02-23 06:20:00,
2013-02-22 22:25:00,45.2,37.4,30.19,West,270,0.0,0.0,74,0.00,,,0.00,WeatherCatV1.15B25,2013-02-23 06:25:00,
2013-02-22 22:30:00,45.2,37.1,30.17,West,270,0.0,0.0,73,0.00,,,0.00,LWC V2.11 B50,2013-02-23 06:30:00,
2013-02-22 22:35:00,45.2,37.4,30.19,West,270,0.0,0.0,74,0.00,,,0.00,WeatherCatV1.15B25,2013-02-23 06:35:00,
2013-02-22 22:40:00,45.2,37.1,30.17,West,270,0.0,0.0,73,0.00,,,0.00,LWC V2.11 B50,2013-02-23 06:40:00,
2013-02-22 22:45:00,45.2,37.4,30.19,West,270,0.0,0.0,74,0.00,,,0.00,WeatherCatV1.15B25,2013-02-23 06:45:00,
2013-02-22 22:50:00,45.2,37.1,30.17,West,270,0.0,0.0,73,0.00,,,0.00,LWC V2.11 B50,2013-02-23 06:50:00,
2013-02-22 22:55:00,45.2,37.4,30.19,West,270,0.0,0.0,74,0.00,,,0.00,WeatherCatV1.15B25,2013-02-23 06:55:00,
2013-02-22 23:00:00,45.2,37.4,30.19,West,270,0.0,0.0,74,0.00,,,0.00,LWC V2.11 B50,2013-02-23 07:00:00,
2013-02-22 23:05:00,46.0,35.3,30.18,SE,135,0.0,5.0,66,0.00,,,0.00,WeatherCatV1.15B25,2013-02-23 07:05:00,
2013-02-22 23:10:00,45.2,37.4,30.19,West,270,0.0,0.0,74,0.00,,,0.00,LWC V2.11 B50,2013-02-23 07:10:00,
2013-02-22 23:15:00,46.0,35.3,30.18,SE,135,0.0,5.0,66,0.00,,,0.00,WeatherCatV1.15B25,2013-02-23 07:15:00,
2013-02-22 23:20:00,45.2,37.4,30.19,West,270,0.0,0.0,74,0.00,,,0.00,LWC V2.11 B50,2013-02-23 07:20:00,
2013-02-22 23:25:00,46.0,35.3,30.18,SE,135,0.0,5.0,66,0.00,,,0.00,WeatherCatV1.15B25,2013-02-23 07:25:00,
2013-02-22 23:30:00,45.2,37.4,30.19,West,270,0.0,0.0,74,0.00,,,0.00,LWC V2.11 B50,2013-02-23 07:30:00,
2013-02-22 23:35:00,46.0,35.3,30.18,SE,135,0.0,5.0,66,0.00,,,0.00,WeatherCatV1.15B25,2013-02-23 07:35:00,
2013-02-22 23:40:00,45.2,37.4,30.19,West,270,0.0,0.0,74,0.00,,,0.00,LWC V2.11 B50,2013-02-23 07:40:00,
2013-02-22 23:45:00,46.0,35.3,30.18,SE,135,0.0,5.0,66,0.00,,,0.00,WeatherCatV1.15B25,2013-02-23 07:45:00,
2013-02-22 23:50:00,45.2,37.4,30.19,West,270,0.0,0.0,74,0.00,,,0.00,LWC V2.11 B50,2013-02-23 07:50:00,
2013-02-22 23:55:00,46.0,35.3,30.18,SE,135,0.0,5.0,66,0.00,,,0.00,WeatherCatV1.15B25,2013-02-23 07:55:00,